Weather History for KDYT - April, 2013

Change the Weather History Date:

Wednesday, April 3, 2013

  Actual Average Record
Temperature  
Mean Temperature 30 °F -  
Max Temperature 44 °F 40 °F 61 °F (1991)
Min Temperature 17 °F 24 °F -2 °F (1954)
Degree Days  
Heating Degree Days 34    
Moisture  
Dew Point 17 °F    
Average Humidity 56    
Maximum Humidity 79    
Minimum Humidity 31    
Precipitation  
Precipitation 0.00 in - - ()
Sea Level Pressure  
Sea Level Pressure 30.25 in    
Wind  
Wind Speed 7 mph (East)    
Max Wind Speed 23 mph    
Max Gust Speed 31 mph    
Visibility 10 miles    
Events      
Averages and records for this station are not official NWS values.
T = Trace of Precipitation, MM = Missing Value Source: NWS Daily Summary

Daily Weather History Graph

Daily Weather History Graph

Search for Another Location

Airport or City:

Trip Planner

Search our weather history database for the weather conditions in past years. The results will help you decide how hot, cold, wet, or windy it might be!

Date:

Astronomy

Apr. 03, 2013 Rise Set
Actual Time 6:43 AM CDT 7:40 PM CDT
Civil Twilight 6:12 AM CDT 8:11 PM CDT
Nautical Twilight 5:35 AM CDT 8:48 PM CDT
Astronomical Twilight 4:56 AM CDT 9:27 PM CDT
Moon 2:47 AM CDT 12:30 PM CDT
Length of Visible Light 13h 58m
Length of Day
12h 57m
Last Quarter, 44% of the Moon is Illuminated
Apr 3
Last Quarter
Apr 10
New
Apr 18
First Quarter
Apr 25
Full
May 2
Last Quarter

Hourly Weather History & Observations

Time (CDT) Temp. Windchill Dew Point Humidity Pressure Visibility Wind Dir Wind Speed Gust Speed Precip Events Conditions
12:14 AM 30.2 °F 23.4 °F 6.8 °F 37% 30.36 in 10.0 mi NNE 6.9 mph - N/A   Clear
12:33 AM 30.2 °F 24.3 °F 6.8 °F 37% 30.36 in 10.0 mi NNE 5.8 mph - N/A   Clear
12:54 AM 28.4 °F 20.4 °F 5.0 °F 37% 30.37 in 10.0 mi North 8.1 mph - N/A   Clear
1:13 AM 28.4 °F 21.2 °F 5.0 °F 37% 30.37 in 10.0 mi North 6.9 mph - N/A   Clear
1:33 AM 28.4 °F 22.2 °F 5.0 °F 37% 30.37 in 10.0 mi North 5.8 mph - N/A   Clear
1:53 AM 28.4 °F 22.2 °F 6.8 °F 40% 30.38 in 10.0 mi North 5.8 mph - N/A   Clear
2:14 AM 28.4 °F 21.2 °F 6.8 °F 40% 30.38 in 10.0 mi North 6.9 mph - N/A   Clear
2:33 AM 28.4 °F 21.2 °F 8.6 °F 43% 30.37 in 10.0 mi NNE 6.9 mph - N/A   Clear
2:53 AM 28.4 °F 22.2 °F 8.6 °F 43% 30.37 in 10.0 mi NNE 5.8 mph - N/A   Clear
3:14 AM 28.4 °F 22.2 °F 8.6 °F 43% 30.37 in 10.0 mi NE 5.8 mph - N/A   Clear
3:33 AM 28.4 °F 21.2 °F 10.4 °F 47% 30.37 in 10.0 mi NE 6.9 mph - N/A   Clear
3:53 AM 28.4 °F 24.6 °F 10.4 °F 47% 30.38 in 10.0 mi ENE 3.5 mph - N/A   Clear
4:14 AM 21.2 °F 16.4 °F 12.2 °F 68% 30.38 in 10.0 mi South 3.5 mph - N/A   Clear
4:33 AM 21.2 °F - 10.4 °F 63% 30.38 in 10.0 mi Calm Calm - N/A   Clear
4:53 AM 21.2 °F - 12.2 °F 68% 30.38 in 10.0 mi Calm Calm - N/A   Clear
5:14 AM 19.4 °F - 10.4 °F 68% 30.38 in 10.0 mi Calm Calm - N/A   Clear
5:33 AM 19.4 °F - 12.2 °F 74% 30.38 in 10.0 mi Calm Calm - N/A   Clear
5:53 AM 17.6 °F - 12.2 °F 79% 30.38 in 10.0 mi Calm Calm - N/A   Clear
6:14 AM 17.6 °F - 10.4 °F 73% 30.38 in 10.0 mi Calm Calm - N/A   Clear
6:33 AM 19.4 °F - 10.4 °F 68% 30.39 in 10.0 mi Calm Calm - N/A   Clear
6:53 AM 17.6 °F - 10.4 °F 73% 30.39 in 10.0 mi Calm Calm - N/A   Clear
7:13 AM 17.6 °F - 10.4 °F 73% 30.39 in 10.0 mi Calm Calm - N/A   Clear
7:33 AM 17.6 °F - 10.4 °F 73% 30.39 in 10.0 mi Calm Calm - N/A   Clear
7:54 AM 19.4 °F - 10.4 °F 68% 30.39 in 10.0 mi Calm Calm - N/A   Clear
8:13 AM 21.2 °F - 10.4 °F 63% 30.39 in 10.0 mi Calm Calm - N/A   Clear
8:33 AM 23.0 °F - 10.4 °F 59% 30.39 in 10.0 mi Calm Calm - N/A   Clear
8:54 AM 26.6 °F - 10.4 °F 51% 30.39 in 10.0 mi Calm Calm - N/A   Clear
9:13 AM 28.4 °F - 8.6 °F 43% 30.39 in 10.0 mi Calm Calm - N/A   Clear
9:33 AM 28.4 °F - 8.6 °F 43% 30.39 in 10.0 mi Calm Calm - N/A   Clear
9:54 AM 30.2 °F - 10.4 °F 44% 30.38 in 10.0 mi Calm Calm - N/A   Clear
10:13 AM 30.2 °F - 10.4 °F 44% 30.38 in 10.0 mi Calm Calm - N/A   Clear
10:34 AM 30.2 °F 24.3 °F 15.8 °F 55% 30.38 in 10.0 mi NE 5.8 mph - N/A   Clear
10:53 AM 30.2 °F 23.4 °F 15.8 °F 55% 30.37 in 10.0 mi NNE 6.9 mph - N/A   Clear
11:13 AM 30.2 °F 23.4 °F 15.8 °F 55% 30.37 in 10.0 mi NNE 6.9 mph - N/A   Clear
11:34 AM 30.2 °F 24.3 °F 17.6 °F 60% 30.36 in 10.0 mi NE 5.8 mph - N/A   Clear
11:53 AM 30.2 °F 24.3 °F 17.6 °F 60% 30.35 in 10.0 mi NE 5.8 mph - N/A   Clear
12:13 PM 32.0 °F 24.8 °F 17.6 °F 55% 30.33 in 10.0 mi NE 8.1 mph - N/A   Clear
12:34 PM 37.4 °F 29.8 °F 12.2 °F 36% 30.31 in 10.0 mi SSW 11.5 mph 16.1 mph N/A   Clear
12:53 PM 39.2 °F 31.6 °F 10.4 °F 31% 30.29 in 10.0 mi SSW 12.7 mph - N/A   Clear
1:13 PM 35.6 °F 28.0 °F 21.2 °F 56% 30.27 in 10.0 mi NE 10.4 mph - N/A   Clear
1:34 PM 33.8 °F 26.4 °F 23.0 °F 65% 30.27 in 10.0 mi NE 9.2 mph - N/A   Clear
1:53 PM 33.8 °F 25.3 °F 24.8 °F 70% 30.25 in 10.0 mi NNE 11.5 mph - N/A   Clear
2:13 PM 33.8 °F 25.8 °F 24.8 °F 70% 30.23 in 10.0 mi NE 10.4 mph - N/A   Clear
2:34 PM 35.6 °F 28.6 °F 26.6 °F 70% 30.22 in 10.0 mi NE 9.2 mph - N/A   Clear
2:53 PM 35.6 °F 28.6 °F 26.6 °F 70% 30.21 in 10.0 mi NE 9.2 mph - N/A   Clear
3:14 PM 35.6 °F 28.0 °F 26.6 °F 70% 30.20 in 10.0 mi NE 10.4 mph - N/A   Clear
3:33 PM 35.6 °F 26.6 °F 26.6 °F 70% 30.19 in 10.0 mi NNE 13.8 mph - N/A   Clear
3:53 PM 35.6 °F 28.0 °F 28.4 °F 75% 30.18 in 10.0 mi NNE 10.4 mph - N/A   Clear
4:14 PM 35.6 °F 28.0 °F 26.6 °F 70% 30.17 in 10.0 mi NNE 10.4 mph - N/A   Clear
4:33 PM 35.6 °F - 26.6 °F 70% 30.16 in 10.0 mi Calm Calm - N/A   Clear
4:53 PM 44.6 °F 37.2 °F 17.6 °F 34% 30.15 in 10.0 mi South 17.3 mph 21.9 mph N/A   Clear
5:14 PM 44.6 °F 36.4 °F 17.6 °F 34% 30.13 in 10.0 mi SSW 20.7 mph - N/A   Clear
5:33 PM 44.6 °F 36.9 °F 17.6 °F 34% 30.12 in 10.0 mi South 18.4 mph 26.5 mph N/A   Clear
5:53 PM 42.8 °F 34.0 °F 19.4 °F 39% 30.11 in 10.0 mi SSW 20.7 mph - N/A   Clear
6:14 PM 42.8 °F 34.3 °F 19.4 °F 39% 30.10 in 10.0 mi South 19.6 mph 25.3 mph N/A   Clear
6:33 PM 42.8 °F 35.4 °F 21.2 °F 42% 30.10 in 10.0 mi South 15.0 mph 24.2 mph N/A   Clear
6:54 PM 42.8 °F 33.5 °F 21.2 °F 42% 30.10 in 10.0 mi SSW 23.0 mph 31.1 mph N/A   Clear
7:14 PM 41.0 °F 32.2 °F 21.2 °F 45% 30.08 in 10.0 mi SSW 18.4 mph 21.9 mph N/A   Scattered Clouds
7:33 PM 41.0 °F 32.5 °F 23.0 °F 49% 30.08 in 10.0 mi SSW 17.3 mph - N/A   Mostly Cloudy
7:54 PM 39.2 °F 29.6 °F 23.0 °F 52% 30.05 in 10.0 mi SSW 19.6 mph 25.3 mph N/A   Scattered Clouds
8:13 PM 39.2 °F 29.6 °F 23.0 °F 52% 30.06 in 10.0 mi SSW 19.6 mph 27.6 mph N/A   Clear
8:33 PM 39.2 °F 31.6 °F 24.8 °F 56% 30.05 in 10.0 mi SSW 12.7 mph 17.3 mph N/A   Clear
8:54 PM 37.4 °F 29.3 °F 24.8 °F 60% 30.04 in 10.0 mi SSW 12.7 mph 19.6 mph N/A   Clear
9:13 PM 37.4 °F 28.2 °F 24.8 °F 60% 30.03 in 10.0 mi SSW 16.1 mph 21.9 mph N/A   Clear
9:34 PM 37.4 °F 28.5 °F 26.6 °F 65% 30.02 in 10.0 mi SSW 15.0 mph - N/A   Clear
9:53 PM 37.4 °F 28.2 °F 26.6 °F 65% 30.01 in 10.0 mi SSW 16.1 mph 23.0 mph N/A   Scattered Clouds
10:13 PM 37.4 °F 27.8 °F 26.6 °F 65% 30.00 in 10.0 mi SSW 17.3 mph 21.9 mph N/A   Scattered Clouds
10:34 PM 37.4 °F 28.5 °F 26.6 °F 65% 29.99 in 10.0 mi SW 15.0 mph 20.7 mph N/A   Scattered Clouds
10:53 PM 39.2 °F 30.2 °F 26.6 °F 61% 29.99 in 10.0 mi SW 17.3 mph 23.0 mph N/A   Mostly Cloudy
11:13 PM 39.2 °F 29.6 °F 28.4 °F 65% 29.97 in 10.0 mi SSW 19.6 mph 24.2 mph N/A   Mostly Cloudy
11:34 PM 39.2 °F 29.8 °F 28.4 °F 65% 29.96 in 10.0 mi SW 18.4 mph 26.5 mph N/A   Overcast
11:53 PM 39.2 °F 30.5 °F 28.4 °F 65% 29.96 in 10.0 mi SW 16.1 mph 23.0 mph N/A   Overcast